Orbital Elements at Epoch 2459000.5 (2020-May-31.0) TDB
Reference: JPL 17 (heliocentric ecliptic J2000)
Element | Value | Uncertainty (1-sigma) | Units |
e | .1048419285706274 | 4.139e-08 | |
a | 2.796337956120437 | 1.7442e-08 | au |
q | 2.503164491865524 | 1.225e-07 | au |
i | 3.661394222693457 | 5.1392e-06 | deg |
node | .1311333670329052 | 6.8368e-05 | deg |
peri | 335.3953431598432 | 7.3239e-05 | deg |
M | 263.1657772548401 | 2.7665e-05 | deg |
tp | 2459459.919350530940 (2021-Sep-02.41935053) | 0.00013255 | TDB |
period | 1707.980520754532 4.68 | 1.5981e-05 4.375e-08 | d yr |
n | .2107752375542102 | 1.9721e-09 | deg/d |
Q | 3.08951142037535 | 1.9271e-08 | au |
|
| | Orbit Determination Parameters
Additional Information
|